Wind_Speed
19 15 22 19 16 17 22 26 23 18 19 19 18 18 15 13 12 12 13 14 10 9 8 7 7 5 5 7 7 7 7 6 4 3 2 3 3 5 7 10 13 15 18 20 26 32 37 37 39
20 18 22 22 16 14 24 29 25 23 19 19 18 18 16 14 13 13 13 13 11 10 9 9 8 6 7 9 9 9 8 6 3 2 1 2 3 5 8 13 15 17 18 21 28 34 36 37 37
22 22 22 21 16 16 21 27 27 26 21 20 19 18 18 15 14 14 13 13 12 12 11 11 9 8 9 10 11 10 8 6 4 2 2 2 3 4 9 14 18 19 20 23 29 34 36 36 35
23 22 22 21 18 19 21 22 28 30 25 24 20 20 18 17 15 15 15 15 13 12 12 12 10 10 11 12 12 11 9 7 5 4 4 3 2 4 9 14 19 21 21 23 30 35 34 34 36
25 25 23 21 21 22 23 22 21 30 29 27 23 21 21 19 17 18 16 15 14 14 13 14 12 12 14 14 13 12 10 8 6 6 6 4 2 5 9 14 19 21 22 24 31 35 33 33 39
25 26 23 22 23 23 25 24 21 25 30 29 26 23 22 21 20 20 19 17 15 15 16 16 15 14 16 16 15 14 11 9 7 9 6 2 2 5 9 13 19 21 22 24 30 34 34 33 39
27 26 23 23 24 27 31 25 24 24 26 26 28 26 24 24 22 21 22 20 17 15 17 18 18 17 19 19 17 16 14 10 8 9 6 3 2 6 9 14 18 21 22 24 29 33 32 34 39
27 26 22 23 26 29 34 30 26 24 24 22 23 28 26 26 25 23 23 23 20 17 18 20 20 19 21 21 20 19 17 14 10 8 5 2 2 5 9 13 17 21 21 24 28 31 31 33 40
29 27 24 27 32 35 35 32 28 26 25 20 22 23 26 28 29 27 24 25 24 21 19 21 22 21 22 23 22 21 19 17 13 10 6 3 2 4 8 11 16 21 21 22 27 28 29 31 37
33 30 28 30 36 36 36 34 32 28 26 22 23 24 26 29 29 31 29 26 27 24 20 22 24 23 24 25 24 23 21 20 16 11 8 5 1 4 7 10 15 20 21 21 25 26 27 28 32
35 34 32 32 34 37 38 37 36 36 29 28 27 25 26 28 29 31 33 32 28 26 23 24 26 25 26 27 27 26 23 22 18 13 9 5 2 4 6 9 13 18 21 21 22 24 25 26 26
39 39 36 34 35 37 38 41 40 40 36 36 32 28 28 28 28 30 34 37 32 30 27 25 27 27 29 30 29 28 26 25 20 15 10 6 3 2 6 9 11 15 19 20 20 22 23 24 25
41 41 41 39 40 40 40 40 42 41 38 40 39 35 31 30 29 30 33 35 34 31 32 29 31 29 30 33 31 30 28 27 24 18 13 8 4 1 5 9 10 13 17 19 20 20 20 22 23
45 46 46 45 43 42 42 41 42 38 43 43 43 41 37 31 30 32 30 32 36 36 35 34 34 33 31 34 35 32 30 28 27 22 16 11 6 2 5 8 10 12 15 18 19 18 18 20 21
49 50 51 50 50 48 45 44 44 45 42 43 42 42 42 37 33 31 31 33 37 41 38 37 37 36 33 33 38 36 33 30 28 26 20 14 9 6 4 7 9 11 12 15 18 18 16 15 18
51 52 53 55 55 54 51 47 47 49 48 45 43 43 42 42 36 35 34 33 35 40 41 41 40 39 36 34 38 40 37 33 31 28 23 17 13 9 7 7 9 9 11 13 15 17 16 14 14
55 57 57 55 58 56 58 52 51 51 51 49 47 45 44 45 41 38 38 36 36 38 44 43 43 42 41 38 37 42 40 36 32 30 26 22 18 13 10 8 9 9 9 11 12 14 15 13 11
56 58 60 62 59 62 60 57 56 55 54 52 52 49 48 47 45 44 42 40 38 39 41 46 46 45 45 41 39 40 41 39 34 33 30 26 22 18 14 11 10 9 8 10 10 12 14 13 11
51 55 59 60 63 64 63 64 59 60 58 55 56 54 54 52 49 47 46 45 43 41 42 45 49 47 47 44 40 38 40 41 40 36 33 29 25 21 17 14 11 10 8 9 9 9 11 12 11
42 43 47 51 53 62 65 65 63 62 62 60 61 58 58 58 55 52 51 49 46 44 44 44 48 50 49 47 44 41 43 46 45 40 34 30 28 24 19 16 13 10 9 8 9 8 9 11 10
39 41 44 47 48 51 57 67 66 62 62 63 63 62 62 62 59 58 55 53 51 48 47 46 46 51 51 51 47 44 45 47 45 38 32 32 31 27 22 18 15 12 10 9 8 8 8 10 10
37 41 45 48 51 52 52 60 59 62 59 61 63 65 63 64 64 62 62 58 55 53 52 48 47 50 52 52 51 47 46 44 42 41 41 36 32 28 23 20 17 14 12 10 8 8 7 8 9
38 40 41 44 47 50 53 56 48 52 59 63 60 63 67 65 68 66 65 63 60 59 57 52 49 49 53 53 53 51 49 46 45 46 46 39 34 30 25 22 19 17 14 12 9 8 7 7 8
38 40 42 44 46 48 51 54 49 51 56 58 65 65 67 68 71 69 68 66 64 63 60 58 54 50 53 56 54 53 52 48 47 47 46 41 38 34 28 25 23 20 18 14 11 9 8 6 8
38 40 43 46 47 48 50 54 51 54 55 61 68 69 70 71 69 71 71 70 68 67 64 61 59 54 53 57 57 56 55 51 49 49 48 45 39 35 31 29 27 24 21 17 14 10 9 6 7
40 41 42 44 47 48 46 49 48 53 60 66 68 69 69 71 74 72 72 74 71 71 69 65 62 60 55 56 59 58 58 54 52 52 49 47 44 40 38 34 31 28 23 21 17 13 10 8 7
38 41 42 44 46 49 49 50 46 46 57 56 64 70 72 72 73 75 72 73 74 73 72 69 65 63 59 57 61 61 60 57 54 53 51 49 47 45 41 37 34 30 26 23 20 15 12 11 9
40 41 40 42 47 53 52 49 44 40 45 37 43 51 65 74 75 75 75 71 75 74 74 71 69 64 64 59 59 63 62 59 57 56 53 51 49 48 44 40 37 32 28 26 23 18 15 13 11
38 40 41 43 44 49 56 53 34 39 36 34 25 39 42 58 68 75 74 73 73 77 74 74 69 69 64 61 60 62 64 62 61 58 56 54 53 51 48 44 40 36 32 29 26 22 18 16 13
38 38 41 42 42 47 53 60 34 39 31 37 25 34 32 37 49 64 74 75 74 75 77 75 73 68 65 62 61 60 64 64 63 60 58 56 55 54 51 47 43 40 36 32 29 24 21 19 15
Wind_Direction
266 265 278 286 274 257 236 250 255 255 257 253 253 258 267 286 274 239 209 215 223 225 228 228 213 219 215 210 184 176 160 147 136 136 66 48 28 16 14 2 355 349 349 349 346 348 349 348 352
263 259 268 281 285 261 237 245 252 255 253 255 252 257 260 282 275 251 226 220 225 232 226 218 211 203 209 205 190 179 167 154 162 138 105 79 41 36 21 12 5 359 353 351 350 353 353 356 355
260 258 262 275 286 262 239 244 245 253 250 254 249 248 257 270 275 254 237 225 222 227 226 220 210 200 204 204 195 183 177 166 184 172 147 113 70 35 27 17 11 4 359 354 355 357 358 360 357
258 257 257 272 268 260 253 249 248 249 247 248 248 250 249 256 269 251 235 231 227 224 225 222 211 203 197 203 198 187 183 182 187 178 154 135 62 24 17 10 7 3 0 356 0 1 5 3 355
254 251 252 265 266 264 264 258 255 253 251 246 246 247 251 255 260 251 233 234 232 232 227 222 213 206 199 200 198 190 186 192 192 177 162 154 43 9 9 7 5 3 2 360 6 6 7 6 359
253 250 249 259 268 269 262 257 253 253 253 248 247 247 249 248 252 252 236 231 240 238 235 221 213 208 202 198 198 189 190 190 191 174 171 184 331 356 360 5 6 3 4 3 9 10 10 6 1
252 250 247 251 266 267 265 262 259 257 257 255 246 248 248 246 243 247 244 235 236 240 235 225 214 208 205 199 199 192 192 190 187 179 189 237 300 345 354 3 5 6 5 7 12 13 13 8 5
255 253 245 244 255 262 263 262 260 259 257 257 255 248 246 242 241 242 243 237 235 241 235 224 216 211 207 201 202 197 195 194 186 178 180 175 31 359 357 360 5 9 7 12 13 15 14 11 12
258 255 244 241 243 251 261 265 268 265 263 258 254 248 245 245 237 236 240 240 235 237 236 226 216 214 209 205 205 202 200 199 198 187 189 212 335 4 3 3 8 11 9 13 14 15 19 17 21
262 258 252 242 241 247 257 263 265 265 265 260 253 250 242 240 240 238 238 239 238 233 236 225 216 217 213 209 206 205 204 204 204 204 210 224 315 19 5 6 10 12 11 14 15 17 21 22 25
263 261 258 251 247 244 250 255 257 258 257 257 250 246 247 245 239 238 238 238 238 232 230 227 217 216 217 210 209 207 208 209 207 210 212 215 232 21 7 13 10 13 11 15 16 21 22 28 25
263 263 260 257 252 249 246 250 253 254 257 257 255 249 246 245 242 237 236 237 236 235 229 225 219 218 219 213 210 209 211 213 213 214 213 214 212 20 12 15 11 14 12 15 19 21 23 28 29
264 264 262 259 255 253 251 250 253 252 256 258 258 254 246 243 243 240 235 237 237 234 231 222 219 219 218 219 212 211 212 215 217 216 218 220 218 2 5 14 10 13 14 14 20 21 23 28 31
263 264 264 262 259 255 254 254 253 256 254 252 255 259 258 252 248 246 244 236 233 232 229 227 218 218 221 219 216 212 214 215 219 219 220 227 234 282 352 3 5 10 15 14 19 21 22 27 33
263 262 262 263 262 259 254 251 253 254 254 255 253 254 257 256 254 254 246 243 240 232 228 229 222 219 219 222 218 214 212 215 218 217 220 231 242 269 319 346 356 6 11 15 17 20 21 23 33
267 265 263 262 261 259 256 252 250 251 253 251 253 252 252 256 251 251 249 243 242 241 232 226 227 219 221 220 222 217 212 214 217 218 221 233 243 259 288 320 340 357 3 11 18 17 19 19 29
268 266 264 263 263 259 259 253 253 250 250 250 251 252 251 251 250 247 249 246 244 238 236 228 226 223 220 221 220 220 216 213 217 220 225 233 243 254 272 291 318 339 355 2 17 16 17 14 17
269 268 266 264 262 262 258 253 254 252 248 247 248 250 251 251 249 246 244 244 241 242 237 230 227 224 222 223 221 220 218 217 217 221 223 230 239 251 262 272 296 321 340 352 8 15 16 11 10
272 269 267 267 265 262 260 255 253 255 251 247 246 245 247 247 247 246 242 241 241 237 240 234 226 225 225 223 225 220 218 217 217 219 222 227 235 246 255 260 276 301 321 341 354 7 12 11 8
274 274 273 272 271 267 262 252 252 254 252 251 246 243 242 243 243 244 243 238 238 237 236 234 227 226 225 226 224 220 216 217 218 216 221 226 234 242 247 251 261 281 301 322 337 353 360 14 6
277 278 280 281 278 277 272 258 250 253 251 251 250 244 240 241 238 240 239 239 235 235 234 235 230 223 223 225 224 223 220 217 220 218 220 227 232 236 239 243 251 266 285 299 328 334 349 2 6
275 277 280 281 283 283 282 273 255 255 254 253 250 248 242 238 238 235 237 235 234 233 233 230 232 227 221 223 225 223 224 217 215 214 216 221 226 230 236 237 243 255 270 284 303 318 335 346 355
280 284 285 284 283 282 280 279 274 268 258 251 249 249 246 241 236 233 233 234 233 231 231 230 229 228 222 220 223 224 223 220 215 215 218 216 221 227 232 234 239 248 258 270 281 299 311 334 337
288 288 286 284 282 283 283 281 276 275 269 262 255 245 243 241 237 233 231 232 232 233 231 228 227 226 225 218 219 222 223 221 218 215 219 218 218 223 227 230 235 241 250 258 265 279 293 315 319
293 290 287 286 284 284 286 282 280 275 267 262 255 249 242 239 237 235 231 231 231 230 230 230 227 225 225 221 216 218 222 219 218 215 215 217 215 218 222 226 231 235 244 251 256 260 272 286 302
295 295 297 299 296 292 292 286 276 270 265 260 259 257 250 243 237 232 232 229 229 229 229 228 229 225 221 224 218 215 218 220 217 218 214 216 215 213 217 222 229 234 238 246 251 251 259 269 284
302 304 306 305 306 302 296 292 282 275 267 263 258 254 250 247 241 236 232 229 228 229 228 227 226 227 223 219 220 216 215 217 219 218 216 213 216 216 217 222 228 233 234 241 246 244 247 251 263
307 308 312 312 311 307 302 297 295 283 270 262 259 257 252 245 243 238 234 229 228 227 228 227 227 225 226 220 221 218 214 214 218 218 217 214 215 217 219 221 225 229 231 236 241 239 239 243 248
308 310 311 309 307 304 310 301 304 295 287 287 270 250 260 249 244 238 234 231 226 227 226 226 225 226 224 223 220 220 217 213 216 217 217 215 215 218 218 219 222 225 227 232 237 236 236 238 242
309 310 309 306 308 305 297 293 296 290 307 300 299 250 270 243 243 240 232 229 225 225 225 225 224 225 225 223 219 220 218 215 214 217 218 216 216 217 219 220 220 223 227 229 236 235 235 234 235
Height
5784 5784 5783 5784 5788 5787 5789 5787 5789 5791 5793 5795 5795 5796 5798 5799 5800 5803 5801 5802 5803 5805 5806 5807 5808 5810 5812 5813 5814 5815 5816 5817 5817 5817 5817 5817 5816 5815 5815 5813 5811 5809 5806 5803 5799 5794 5787 5780 5772
5781 5781 5781 5781 5783 5783 5784 5783 5786 5787 5790 5792 5794 5795 5796 5797 5798 5799 5800 5800 5801 5804 5805 5806 5807 5809 5811 5813 5814 5815 5816 5816 5817 5817 5817 5817 5816 5815 5814 5813 5810 5808 5805 5801 5797 5791 5784 5777 5769
5777 5778 5778 5778 5779 5778 5779 5780 5782 5783 5787 5789 5791 5792 5794 5795 5795 5797 5799 5799 5799 5802 5803 5804 5806 5807 5809 5812 5813 5814 5816 5816 5817 5817 5817 5817 5816 5815 5814 5812 5810 5807 5804 5800 5795 5789 5782 5774 5766
5774 5776 5777 5776 5775 5774 5774 5777 5779 5780 5783 5784 5787 5789 5791 5792 5794 5795 5797 5798 5798 5799 5801 5803 5805 5806 5808 5811 5812 5814 5815 5815 5816 5817 5817 5816 5816 5815 5814 5812 5810 5806 5802 5799 5793 5787 5780 5772 5761
5769 5771 5773 5773 5771 5770 5770 5773 5776 5776 5778 5780 5784 5786 5788 5790 5791 5792 5794 5796 5797 5798 5799 5801 5804 5805 5807 5809 5811 5813 5814 5815 5816 5816 5816 5816 5816 5815 5814 5812 5809 5805 5802 5798 5792 5786 5779 5769 5762
5764 5766 5769 5769 5768 5766 5766 5767 5771 5772 5772 5776 5781 5783 5784 5786 5789 5790 5792 5793 5795 5796 5797 5799 5802 5804 5805 5807 5810 5811 5813 5814 5815 5815 5815 5816 5815 5815 5814 5812 5809 5805 5801 5797 5791 5785 5777 5770 5763
5758 5760 5764 5765 5764 5762 5759 5763 5766 5768 5769 5772 5776 5779 5782 5782 5784 5786 5789 5791 5793 5793 5795 5797 5800 5802 5804 5806 5808 5809 5812 5813 5815 5815 5815 5815 5815 5814 5813 5811 5808 5805 5801 5796 5791 5785 5778 5771 5764
5752 5755 5759 5760 5759 5756 5753 5758 5761 5763 5765 5769 5772 5774 5777 5778 5779 5782 5785 5787 5789 5791 5792 5794 5798 5799 5802 5804 5806 5808 5810 5812 5814 5814 5814 5815 5814 5814 5812 5811 5808 5804 5801 5795 5791 5786 5779 5773 5767
5747 5749 5753 5754 5752 5750 5748 5753 5758 5761 5760 5765 5767 5768 5771 5773 5775 5777 5780 5783 5785 5788 5790 5791 5795 5797 5799 5802 5804 5806 5808 5810 5812 5813 5813 5813 5813 5813 5811 5810 5807 5804 5800 5795 5792 5786 5781 5776 5770
5740 5743 5745 5746 5746 5747 5747 5749 5751 5755 5757 5759 5759 5763 5764 5766 5770 5773 5775 5778 5780 5783 5786 5788 5791 5794 5796 5799 5802 5804 5807 5808 5810 5812 5812 5812 5813 5812 5811 5809 5806 5804 5800 5796 5792 5788 5784 5779 5774
5733 5734 5736 5739 5740 5741 5741 5741 5745 5747 5751 5752 5751 5754 5758 5760 5763 5767 5769 5772 5775 5778 5781 5784 5787 5790 5793 5795 5799 5801 5805 5807 5808 5810 5811 5811 5812 5811 5810 5808 5806 5804 5800 5797 5793 5789 5786 5781 5777
5722 5725 5728 5730 5731 5732 5735 5735 5738 5740 5744 5744 5747 5749 5752 5754 5757 5760 5762 5765 5769 5774 5776 5779 5782 5785 5789 5791 5795 5798 5802 5804 5806 5808 5809 5810 5811 5810 5809 5807 5806 5804 5800 5797 5793 5791 5788 5784 5780
5714 5715 5717 5720 5721 5724 5727 5730 5730 5734 5737 5738 5740 5743 5745 5747 5750 5753 5755 5759 5763 5768 5770 5772 5776 5779 5782 5787 5790 5794 5798 5801 5804 5806 5807 5808 5809 5809 5808 5807 5805 5803 5800 5797 5795 5792 5789 5785 5782
5703 5705 5705 5708 5713 5715 5720 5724 5724 5730 5727 5731 5734 5737 5740 5743 5744 5746 5750 5753 5755 5758 5763 5765 5769 5773 5777 5781 5785 5789 5794 5797 5801 5803 5805 5806 5807 5807 5807 5806 5804 5803 5800 5798 5795 5793 5790 5787 5783
5692 5694 5693 5697 5699 5704 5709 5714 5717 5718 5722 5724 5726 5730 5732 5736 5739 5741 5744 5747 5749 5750 5754 5760 5762 5767 5771 5775 5779 5783 5788 5792 5796 5800 5802 5804 5805 5806 5805 5805 5803 5802 5800 5798 5795 5793 5791 5789 5785
5678 5682 5682 5684 5685 5688 5696 5705 5708 5708 5711 5716 5718 5721 5724 5726 5731 5733 5735 5738 5741 5744 5748 5750 5756 5760 5764 5767 5773 5777 5781 5786 5791 5795 5798 5801 5803 5804 5804 5803 5802 5801 5800 5798 5795 5793 5791 5790 5788
5665 5667 5669 5671 5669 5676 5680 5693 5696 5697 5700 5706 5709 5712 5714 5718 5722 5725 5726 5729 5733 5735 5740 5743 5747 5752 5756 5760 5764 5771 5776 5780 5786 5790 5794 5797 5800 5801 5802 5802 5801 5800 5799 5797 5795 5793 5791 5790 5789
5652 5652 5654 5654 5657 5660 5665 5679 5680 5683 5688 5694 5698 5702 5703 5706 5710 5713 5716 5719 5723 5727 5729 5734 5739 5743 5748 5753 5757 5763 5771 5776 5781 5785 5789 5793 5796 5798 5799 5800 5799 5799 5798 5796 5795 5793 5791 5790 5789
5638 5639 5640 5639 5640 5644 5648 5662 5670 5668 5675 5681 5684 5687 5688 5692 5694 5698 5703 5708 5712 5716 5720 5726 5729 5735 5740 5746 5752 5757 5764 5768 5773 5778 5783 5788 5792 5795 5796 5797 5797 5797 5796 5795 5794 5792 5791 5790 5789
5627 5627 5627 5626 5627 5625 5629 5645 5652 5655 5661 5662 5663 5670 5673 5675 5681 5686 5689 5694 5700 5705 5709 5715 5720 5725 5730 5737 5743 5748 5752 5758 5763 5770 5777 5783 5787 5790 5792 5793 5794 5794 5794 5794 5793 5792 5790 5789 5789
5616 5617 5616 5614 5614 5614 5615 5625 5635 5640 5643 5643 5646 5651 5656 5659 5665 5669 5673 5680 5685 5692 5697 5703 5709 5715 5720 5727 5733 5740 5742 5749 5759 5768 5773 5777 5780 5785 5787 5789 5791 5791 5792 5792 5792 5791 5790 5788 5787
5609 5609 5607 5605 5603 5604 5604 5601 5619 5620 5625 5626 5628 5630 5635 5640 5646 5652 5655 5661 5668 5677 5682 5688 5697 5704 5709 5716 5724 5731 5737 5743 5751 5757 5761 5767 5773 5779 5783 5784 5786 5788 5789 5789 5789 5789 5788 5787 5786
5601 5600 5598 5596 5594 5593 5589 5591 5603 5602 5605 5604 5610 5611 5614 5620 5625 5633 5639 5645 5652 5657 5667 5675 5682 5691 5699 5706 5714 5721 5727 5735 5741 5747 5753 5759 5767 5773 5778 5779 5782 5784 5785 5786 5786 5786 5786 5786 5785
5591 5590 5586 5585 5584 5582 5578 5578 5591 5589 5581 5585 5584 5589 5591 5595 5602 5613 5622 5629 5638 5646 5654 5661 5668 5678 5687 5694 5701 5711 5718 5726 5733 5739 5747 5753 5759 5765 5771 5774 5777 5779 5781 5783 5783 5784 5784 5783 5783
5579 5578 5575 5573 5571 5570 5566 5565 5573 5568 5566 5557 5547 5553 5564 5573 5588 5597 5607 5615 5622 5629 5639 5649 5656 5665 5675 5682 5689 5698 5708 5716 5723 5730 5737 5744 5751 5758 5763 5768 5771 5774 5776 5778 5780 5781 5781 5781 5781
5569 5566 5563 5557 5555 5554 5552 5549 5556 5548 5538 5535 5538 5542 5549 5558 5565 5575 5584 5595 5604 5613 5623 5633 5644 5651 5661 5672 5679 5686 5696 5706 5713 5721 5728 5736 5743 5748 5753 5760 5765 5768 5772 5774 5775 5777 5778 5778 5778
5558 5554 5550 5545 5540 5535 5536 5532 5537 5527 5516 5516 5514 5516 5524 5533 5544 5555 5567 5579 5589 5599 5607 5619 5628 5640 5649 5659 5666 5675 5684 5695 5705 5711 5720 5727 5734 5740 5746 5752 5758 5762 5766 5769 5771 5773 5775 5775 5775
5547 5542 5537 5532 5525 5518 5519 5517 5514 5504 5502 5500 5499 5498 5501 5510 5519 5533 5546 5559 5571 5581 5592 5604 5617 5626 5636 5647 5657 5665 5673 5683 5692 5701 5710 5718 5725 5732 5739 5745 5750 5756 5760 5763 5766 5769 5771 5772 5772
5538 5532 5525 5521 5515 5506 5500 5499 5505 5493 5492 5487 5488 5486 5485 5490 5497 5508 5524 5538 5552 5565 5577 5588 5603 5614 5623 5635 5646 5654 5663 5672 5680 5690 5698 5708 5715 5722 5730 5736 5742 5748 5753 5757 5760 5764 5766 5768 5769
5528 5522 5514 5508 5510 5503 5491 5477 5497 5486 5486 5479 5478 5477 5477 5478 5481 5487 5501 5516 5531 5546 5561 5573 5586 5601 5614 5622 5632 5643 5652 5661 5670 5680 5688 5698 5706 5712 5721 5728 5734 5740 5745 5750 5754 5758 5761 5763 5765